| time (UTC) | temp F | wind direction | speed MPH | gust MPH | rain 1hr in | rain 24hr in | rain mn in | humidity % | barometer mb |
| 20260507025055 | 56 | 35 | 0.0 | 0.0 | 0.00 | 0.00 | 0.00 | 81 | 1019.1 |
| 20260507024553 | 56 | 21 | 0.0 | 1.0 | 0.00 | 0.00 | 0.00 | 81 | 1018.7 |
| 20260507024050 | 56 | 19 | 0.0 | 0.0 | 0.00 | 0.00 | 0.00 | 81 | 1018.9 |
| 20260507023545 | 56 | 32 | 0.0 | 0.0 | 0.00 | 0.00 | 0.00 | 81 | 1018.7 |
| 20260507023043 | 56 | 25 | 1.0 | 1.0 | 0.00 | 0.00 | 0.00 | 80 | 1018.7 |
| 20260507022540 | 57 | 21 | 0.0 | 0.0 | 0.00 | 0.00 | 0.00 | 80 | 1018.9 |
| 20260507022035 | 57 | 28 | 0.0 | 0.0 | 0.00 | 0.00 | 0.00 | 80 | 1018.9 |
| 20260507021531 | 57 | 350 | 1.0 | 1.0 | 0.00 | 0.00 | 0.00 | 80 | 1018.8 |
| 20260507021028 | 57 | 29 | 0.0 | 0.0 | 0.00 | 0.00 | 0.00 | 80 | 1018.7 |
| 20260507020526 | 57 | 1 | 1.0 | 1.0 | 0.00 | 0.00 | 0.00 | 80 | 1019.0 |
| 20260507020022 | 57 | 350 | 1.0 | 1.0 | 0.00 | 0.00 | 0.00 | 80 | 1018.8 |
| 20260507015521 | 57 | 350 | 1.0 | 1.0 | 0.00 | 0.00 | 0.00 | 80 | 1018.8 |
| 20260507015018 | 57 | 30 | 1.0 | 1.0 | 0.00 | 0.00 | 0.00 | 81 | 1018.8 |
| 20260507014514 | 57 | 15 | 0.0 | 1.0 | 0.00 | 0.00 | 0.00 | 80 | 1018.9 |
| 20260507014010 | 57 | 34 | 1.0 | 1.0 | 0.00 | 0.00 | 0.00 | 80 | 1018.9 |
| 20260507013507 | 57 | 13 | 0.0 | 1.0 | 0.00 | 0.00 | 0.00 | 80 | 1018.8 |
| 20260507013004 | 58 | 15 | 1.0 | 2.0 | 0.00 | 0.00 | 0.00 | 79 | 1018.8 |
| 20260507012501 | 58 | 40 | 1.0 | 1.0 | 0.00 | 0.00 | 0.00 | 78 | 1018.7 |
| 20260507011957 | 58 | 16 | 0.0 | 0.0 | 0.00 | 0.00 | 0.00 | 79 | 1018.8 |
| 20260507011455 | 58 | 7 | 0.0 | 1.0 | 0.00 | 0.00 | 0.00 | 78 | 1018.8 |
| 20260507010950 | 58 | 37 | 0.0 | 0.0 | 0.00 | 0.00 | 0.00 | 78 | 1018.8 |
| 20260507010445 | 58 | 32 | 1.0 | 2.0 | 0.00 | 0.00 | 0.00 | 78 | 1018.8 |
| 20260507005942 | 59 | 32 | 1.0 | 1.0 | 0.00 | 0.00 | 0.00 | 77 | 1019.0 |
| 20260507005439 | 59 | 35 | 0.0 | 0.0 | 0.00 | 0.00 | 0.00 | 76 | 1018.9 |
| 20260507004935 | 59 | 357 | 0.0 | 1.0 | 0.00 | 0.00 | 0.00 | 77 | 1018.8 |
| 20260507004432 | 59 | 35 | 0.0 | 0.0 | 0.00 | 0.00 | 0.00 | 76 | 1018.8 |
| 20260507003930 | 59 | 352 | 0.0 | 0.0 | 0.00 | 0.00 | 0.00 | 76 | 1019.0 |
| 20260507003424 | 59 | 18 | 0.0 | 0.0 | 0.00 | 0.00 | 0.00 | 75 | 1018.8 |
| 20260507002920 | 59 | 24 | 0.0 | 0.0 | 0.00 | 0.00 | 0.00 | 75 | 1018.9 |
| 20260507002417 | 59 | 19 | 0.0 | 1.0 | 0.00 | 0.00 | 0.00 | 75 | 1019.0 |
| 20260507001914 | 59 | 13 | 0.0 | 0.0 | 0.00 | 0.00 | 0.00 | 76 | 1018.9 |
| 20260507001411 | 59 | 54 | 0.0 | 0.0 | 0.00 | 0.00 | 0.00 | 76 | 1018.9 |
| 20260507000908 | 59 | 300 | 3.0 | 3.0 | 0.00 | 0.00 | 0.00 | 76 | 1018.7 |
| 20260507000405 | 59 | 303 | 1.0 | 2.0 | 0.00 | 0.00 | 0.00 | 76 | 1018.9 |
| 20260506235859 | 59 | 1 | 0.0 | 0.0 | 0.00 | 0.00 | 0.00 | 76 | 1019.0 |
| 20260506235357 | 59 | 352 | 0.0 | 0.0 | 0.00 | 0.00 | 0.00 | 76 | 1018.9 |
| 20260506234852 | 59 | 29 | 0.0 | 0.0 | 0.00 | 0.00 | 0.00 | 76 | 1019.1 |
| 20260506234350 | 58 | 356 | 2.0 | 3.0 | 0.00 | 0.00 | 0.00 | 78 | 1019.2 |
| 20260506233848 | 59 | 43 | 0.0 | 0.0 | 0.00 | 0.00 | 0.00 | 79 | 1019.3 |
| 20260506233343 | 59 | 93 | 2.0 | 3.0 | 0.00 | 0.00 | 0.00 | 79 | 1019.1 |
| 20260506232841 | 59 | 11 | 0.0 | 0.0 | 0.00 | 0.00 | 0.00 | 77 | 1018.9 |
| 20260506232336 | 59 | 326 | 0.0 | 1.0 | 0.00 | 0.00 | 0.00 | 78 | 1019.1 |
| 20260506231833 | 58 | 318 | 2.0 | 2.0 | 0.00 | 0.00 | 0.00 | 79 | 1019.0 |
| 20260506231331 | 59 | 307 | 1.0 | 2.0 | 0.00 | 0.00 | 0.00 | 80 | 1019.2 |
| 20260506230828 | 59 | 13 | 0.0 | 0.0 | 0.00 | 0.00 | 0.00 | 79 | 1019.4 |
| 20260506230325 | 59 | 2 | 1.0 | 1.0 | 0.00 | 0.00 | 0.00 | 79 | 1019.0 |
| 20260506225820 | 59 | 12 | 1.0 | 1.0 | 0.00 | 0.00 | 0.00 | 80 | 1019.0 |
| 20260506225318 | 59 | 344 | 0.0 | 0.0 | 0.00 | 0.00 | 0.00 | 80 | 1019.1 |
| 20260506224815 | 59 | 11 | 0.0 | 0.0 | 0.00 | 0.00 | 0.00 | 79 | 1019.3 |
| 20260506224312 | 59 | 14 | 0.0 | 0.0 | 0.00 | 0.00 | 0.00 | 79 | 1019.4 |
| 20260506223809 | 58 | 68 | 2.0 | 2.0 | 0.00 | 0.00 | 0.00 | 79 | 1019.7 |
| 20260506223303 | 58 | 13 | 1.0 | 1.0 | 0.00 | 0.00 | 0.00 | 79 | 1019.6 |
| 20260506222801 | 59 | 356 | 1.0 | 1.0 | 0.00 | 0.00 | 0.00 | 78 | 1019.6 |
| 20260506222256 | 59 | 8 | 0.0 | 1.0 | 0.00 | 0.00 | 0.00 | 78 | 1019.6 |
| 20260506221755 | 59 | 349 | 1.0 | 1.0 | 0.00 | 0.00 | 0.00 | 78 | 1019.6 |
| 20260506221252 | 60 | 24 | 0.0 | 1.0 | 0.00 | 0.00 | 0.00 | 76 | 1019.7 |
| 20260506220750 | 60 | 21 | 0.0 | 1.0 | 0.00 | 0.00 | 0.00 | 74 | 1019.7 |
| 20260506220244 | 60 | 25 | 0.0 | 0.0 | 0.00 | 0.00 | 0.00 | 76 | 1019.5 |
| 20260506215741 | 59 | 0 | 0.0 | 1.0 | 0.00 | 0.00 | 0.00 | 77 | 1019.5 |
| 20260506215237 | 59 | 54 | 1.0 | 1.0 | 0.00 | 0.00 | 0.00 | 76 | 1019.6 |
| 20260506214733 | 59 | 31 | 0.0 | 0.0 | 0.00 | 0.00 | 0.00 | 77 | 1019.6 |
| 20260506214231 | 59 | 17 | 0.0 | 0.0 | 0.00 | 0.00 | 0.00 | 75 | 1019.7 |
| 20260506213729 | 60 | 31 | 0.0 | 0.0 | 0.00 | 0.00 | 0.00 | 75 | 1019.6 |
| 20260506213226 | 60 | 9 | 0.0 | 0.0 | 0.00 | 0.00 | 0.00 | 74 | 1019.5 |
| 20260506212723 | 59 | 38 | 0.0 | 0.0 | 0.00 | 0.00 | 0.00 | 75 | 1019.5 |
| 20260506212218 | 59 | 350 | 0.0 | 1.0 | 0.00 | 0.00 | 0.00 | 76 | 1019.4 |
| 20260506211714 | 59 | 1 | 0.0 | 1.0 | 0.00 | 0.00 | 0.00 | 76 | 1019.2 |
| 20260506211210 | 59 | 30 | 1.0 | 2.0 | 0.00 | 0.00 | 0.00 | 76 | 1019.5 |
| 20260506210708 | 58 | 347 | 0.0 | 0.0 | 0.00 | 0.00 | 0.00 | 78 | 1019.5 |
| 20260506210204 | 59 | 331 | 1.0 | 1.0 | 0.00 | 0.00 | 0.00 | 77 | 1019.3 |
| 20260506205702 | 58 | 24 | 0.0 | 0.0 | 0.00 | 0.00 | 0.00 | 77 | 1019.5 |
| 20260506205156 | 58 | 28 | 0.0 | 0.0 | 0.00 | 0.00 | 0.00 | 79 | 1019.2 |
| 20260506204654 | 58 | 11 | 0.0 | 0.0 | 0.00 | 0.00 | 0.00 | 78 | 1019.2 |
| 20260506204151 | 58 | 3 | 0.0 | 0.0 | 0.00 | 0.00 | 0.00 | 79 | 1019.3 |
| 20260506203649 | 58 | 23 | 0.0 | 0.0 | 0.00 | 0.00 | 0.00 | 79 | 1019.3 |
| 20260506203146 | 57 | 46 | 0.0 | 0.0 | 0.00 | 0.00 | 0.00 | 79 | 1019.4 |
| 20260506202644 | 57 | 92 | 2.0 | 3.0 | 0.00 | 0.00 | 0.00 | 80 | 1019.4 |
| 20260506202139 | 58 | 34 | 0.0 | 1.0 | 0.00 | 0.00 | 0.00 | 78 | 1019.3 |
| 20260506201637 | 58 | 47 | 1.0 | 1.0 | 0.00 | 0.00 | 0.00 | 78 | 1019.2 |
| 20260506201133 | 58 | 27 | 0.0 | 0.0 | 0.00 | 0.00 | 0.00 | 78 | 1019.0 |
| 20260506200630 | 58 | 34 | 0.0 | 0.0 | 0.00 | 0.00 | 0.00 | 79 | 1019.1 |
| 20260506200127 | 58 | 30 | 1.0 | 1.0 | 0.00 | 0.00 | 0.00 | 78 | 1019.2 |
| 20260506195623 | 58 | 357 | 0.0 | 0.0 | 0.00 | 0.00 | 0.00 | 78 | 1019.2 |
| 20260506195120 | 58 | 52 | 1.0 | 2.0 | 0.00 | 0.00 | 0.00 | 77 | 1019.0 |
| 20260506194617 | 57 | 320 | 0.0 | 0.0 | 0.00 | 0.00 | 0.00 | 79 | 1019.1 |
| 20260506194113 | 57 | 13 | 0.0 | 0.0 | 0.00 | 0.00 | 0.00 | 79 | 1019.2 |
| 20260506193611 | 58 | 332 | 1.0 | 1.0 | 0.00 | 0.00 | 0.00 | 78 | 1019.1 |
| 20260506193108 | 57 | 19 | 0.0 | 1.0 | 0.00 | 0.00 | 0.00 | 79 | 1019.0 |
| 20260506192605 | 57 | 314 | 0.0 | 0.0 | 0.00 | 0.00 | 0.00 | 79 | 1019.2 |
| 20260506192101 | 57 | 24 | 2.0 | 2.0 | 0.00 | 0.00 | 0.00 | 79 | 1018.9 |
| 20260506191558 | 58 | 46 | 1.0 | 2.0 | 0.00 | 0.00 | 0.00 | 78 | 1018.9 |
| 20260506191053 | 57 | 26 | 0.0 | 0.0 | 0.00 | 0.00 | 0.00 | 79 | 1018.9 |
| 20260506190551 | 57 | 27 | 1.0 | 1.0 | 0.00 | 0.00 | 0.00 | 80 | 1018.9 |
| 20260506190048 | 57 | 355 | 1.0 | 1.0 | 0.00 | 0.00 | 0.00 | 79 | 1019.0 |
| 20260506185545 | 57 | 350 | 0.0 | 0.0 | 0.00 | 0.00 | 0.00 | 80 | 1019.1 |
| 20260506185042 | 57 | 40 | 0.0 | 1.0 | 0.00 | 0.00 | 0.00 | 81 | 1018.8 |
| 20260506184539 | 57 | 21 | 0.0 | 0.0 | 0.00 | 0.00 | 0.00 | 80 | 1018.8 |
| 20260506184036 | 57 | 39 | 0.0 | 0.0 | 0.00 | 0.00 | 0.00 | 81 | 1019.0 |
| 20260506183532 | 57 | 33 | 2.0 | 3.0 | 0.00 | 0.00 | 0.00 | 81 | 1018.7 |
| 20260506183029 | 57 | 324 | 0.0 | 1.0 | 0.00 | 0.00 | 0.00 | 80 | 1019.1 |
| 20260506182526 | 57 | 337 | 2.0 | 2.0 | 0.00 | 0.00 | 0.00 | 81 | 1019.0 |
| 20260506182023 | 56 | 39 | 0.0 | 1.0 | 0.00 | 0.00 | 0.00 | 81 | 1018.8 |
| 20260506181521 | 55 | 15 | 0.0 | 1.0 | 0.00 | 0.00 | 0.00 | 82 | 1019.0 |
| 20260506181018 | 55 | 283 | 6.0 | 7.0 | 0.00 | 0.00 | 0.00 | 82 | 1018.8 |
| 20260506180514 | 56 | 317 | 3.0 | 3.0 | 0.00 | 0.00 | 0.00 | 82 | 1018.8 |
| 20260506180011 | 57 | 289 | 3.0 | 7.0 | 0.00 | 0.00 | 0.00 | 80 | 1018.5 |
| 20260506175508 | 57 | 356 | 2.0 | 2.0 | 0.00 | 0.00 | 0.00 | 78 | 1018.5 |
| 20260506175004 | 57 | 19 | 2.0 | 2.0 | 0.00 | 0.00 | 0.00 | 78 | 1018.5 |
| 20260506174503 | 58 | 318 | 2.0 | 2.0 | 0.00 | 0.00 | 0.00 | 77 | 1018.5 |
| 20260506173958 | 58 | 69 | 2.0 | 2.0 | 0.00 | 0.00 | 0.00 | 76 | 1018.9 |
| 20260506173456 | 58 | 43 | 0.0 | 0.0 | 0.00 | 0.00 | 0.00 | 77 | 1018.2 |
| 20260506172952 | 59 | 15 | 0.0 | 0.0 | 0.00 | 0.00 | 0.00 | 75 | 1018.5 |
| 20260506172450 | 58 | 10 | 0.0 | 1.0 | 0.00 | 0.00 | 0.00 | 76 | 1018.4 |
| 20260506171946 | 58 | 46 | 0.0 | 0.0 | 0.00 | 0.00 | 0.00 | 77 | 1018.3 |
| 20260506171444 | 57 | 6 | 0.0 | 0.0 | 0.00 | 0.00 | 0.00 | 78 | 1018.4 |
| 20260506170941 | 57 | 50 | 0.0 | 1.0 | 0.00 | 0.00 | 0.00 | 78 | 1018.4 |
| 20260506170437 | 57 | 35 | 0.0 | 0.0 | 0.00 | 0.00 | 0.00 | 79 | 1018.6 |
| 20260506165931 | 56 | 40 | 0.0 | 0.0 | 0.00 | 0.00 | 0.00 | 80 | 1018.6 |
| 20260506165429 | 56 | 11 | 0.0 | 1.0 | 0.00 | 0.00 | 0.00 | 80 | 1018.6 |
| 20260506164924 | 57 | 63 | 1.0 | 1.0 | 0.00 | 0.00 | 0.00 | 79 | 1018.6 |
| 20260506164421 | 56 | 35 | 0.0 | 0.0 | 0.00 | 0.00 | 0.00 | 80 | 1018.6 |
| 20260506163914 | 56 | 4 | 0.0 | 0.0 | 0.00 | 0.00 | 0.00 | 81 | 1018.4 |
| 20260506163408 | 56 | 8 | 0.0 | 0.0 | 0.00 | 0.00 | 0.00 | 80 | 1018.6 |
| 20260506162903 | 57 | 61 | 1.0 | 1.0 | 0.00 | 0.00 | 0.00 | 80 | 1018.6 |
| 20260506162401 | 56 | 4 | 0.0 | 1.0 | 0.00 | 0.00 | 0.00 | 80 | 1018.5 |
| 20260506161858 | 56 | 64 | 1.0 | 2.0 | 0.00 | 0.00 | 0.00 | 81 | 1018.4 |
| 20260506161356 | 57 | 43 | 2.0 | 2.0 | 0.00 | 0.00 | 0.00 | 80 | 1018.2 |
| 20260506160853 | 56 | 8 | 0.0 | 0.0 | 0.00 | 0.00 | 0.00 | 82 | 1018.4 |
| 20260506160350 | 56 | 344 | 0.0 | 0.0 | 0.00 | 0.00 | 0.00 | 82 | 1018.2 |
| 20260506155848 | 56 | 51 | 1.0 | 1.0 | 0.00 | 0.00 | 0.00 | 83 | 1018.0 |
| 20260506155345 | 55 | 72 | 1.0 | 2.0 | 0.00 | 0.00 | 0.00 | 83 | 1018.0 |
| 20260506153502 | 55 | 17 | 0.0 | 0.0 | 0.00 | 0.00 | 0.00 | 85 | 1018.3 |
| 20260506153000 | 55 | 8 | 0.0 | 1.0 | 0.00 | 0.00 | 0.00 | 85 | 1018.1 |
| 20260506152456 | 55 | 347 | 0.0 | 0.0 | 0.00 | 0.00 | 0.00 | 87 | 1018.2 |
| 20260506151955 | 54 | 347 | 0.0 | 0.0 | 0.00 | 0.00 | 0.00 | 88 | 1018.0 |
| 20260506151452 | 55 | 348 | 0.0 | 0.0 | 0.00 | 0.00 | 0.00 | 89 | 1018.3 |
| 20260506150949 | 54 | 347 | 0.0 | 0.0 | 0.00 | 0.00 | 0.00 | 89 | 1018.5 |
| 20260506150445 | 54 | 347 | 0.0 | 0.0 | 0.00 | 0.00 | 0.00 | 89 | 1018.4 |
| 20260506145942 | 54 | 347 | 0.0 | 0.0 | 0.00 | 0.00 | 0.00 | 89 | 1018.3 |
| 20260506145438 | 54 | 6 | 0.0 | 0.0 | 0.00 | 0.00 | 0.00 | 89 | 1018.4 |
| 20260506144937 | 54 | 24 | 0.0 | 0.0 | 0.00 | 0.00 | 0.00 | 89 | 1018.2 |
| 20260506144433 | 53 | 24 | 0.0 | 0.0 | 0.00 | 0.00 | 0.00 | 90 | 1018.2 |
| 20260506143931 | 53 | 4 | 2.0 | 2.0 | 0.00 | 0.00 | 0.00 | 91 | 1017.9 |
| 20260506143428 | 53 | 14 | 0.0 | 0.0 | 0.00 | 0.00 | 0.00 | 91 | 1018.0 |
| 20260506142926 | 53 | 6 | 0.0 | 0.0 | 0.00 | 0.00 | 0.00 | 91 | 1018.1 |
| 20260506142424 | 53 | 16 | 0.0 | 1.0 | 0.00 | 0.00 | 0.00 | 91 | 1017.7 |
| 20260506141921 | 53 | 22 | 0.0 | 1.0 | 0.00 | 0.00 | 0.00 | 91 | 1017.7 |
| 20260506141419 | 53 | 331 | 2.0 | 2.0 | 0.00 | 0.00 | 0.00 | 92 | 1017.9 |
| 20260506140918 | 53 | 299 | 3.0 | 3.0 | 0.00 | 0.00 | 0.00 | 92 | 1017.6 |
| 20260506140414 | 52 | 10 | 1.0 | 1.0 | 0.00 | 0.00 | 0.00 | 92 | 1017.6 |
| 20260506135911 | 53 | 349 | 1.0 | 1.0 | 0.00 | 0.00 | 0.00 | 93 | 1017.8 |
| 20260506135408 | 52 | 338 | 1.0 | 2.0 | 0.00 | 0.00 | 0.00 | 93 | 1017.8 |
| 20260506134904 | 52 | 298 | 3.0 | 5.0 | 0.00 | 0.00 | 0.00 | 93 | 1017.6 |
| 20260506134400 | 52 | 298 | 3.0 | 5.0 | 0.00 | 0.00 | 0.00 | 93 | 1017.6 |
| 20260506133857 | 52 | 354 | 0.0 | 1.0 | 0.00 | 0.00 | 0.00 | 93 | 1017.6 |
| 20260506133354 | 52 | 21 | 0.0 | 1.0 | 0.00 | 0.00 | 0.00 | 93 | 1017.6 |
| 20260506132850 | 52 | 322 | 0.0 | 1.0 | 0.00 | 0.00 | 0.00 | 94 | 1017.8 |
| 20260506132348 | 52 | 330 | 1.0 | 2.0 | 0.00 | 0.00 | 0.00 | 94 | 1017.6 |
| 20260506131846 | 52 | 17 | 0.0 | 1.0 | 0.00 | 0.00 | 0.00 | 94 | 1017.7 |
| 20260506131342 | 52 | 324 | 1.0 | 1.0 | 0.00 | 0.00 | 0.00 | 94 | 1017.6 |
| 20260506130840 | 52 | 294 | 2.0 | 2.0 | 0.00 | 0.00 | 0.00 | 94 | 1017.4 |
| 20260506130336 | 52 | 322 | 0.0 | 0.0 | 0.00 | 0.00 | 0.00 | 95 | 1017.7 |
| 20260506125834 | 52 | 322 | 0.0 | 0.0 | 0.00 | 0.00 | 0.00 | 95 | 1017.7 |
| 20260506125332 | 52 | 316 | 0.0 | 0.0 | 0.00 | 0.00 | 0.00 | 95 | 1017.5 |
| 20260506124830 | 52 | 315 | 0.0 | 0.0 | 0.00 | 0.00 | 0.00 | 95 | 1017.3 |
| 20260506124326 | 52 | 314 | 1.0 | 1.0 | 0.00 | 0.00 | 0.00 | 95 | 1017.2 |
| 20260506123824 | 52 | 349 | 1.0 | 1.0 | 0.00 | 0.00 | 0.00 | 94 | 1017.3 |
| 20260506123322 | 53 | 29 | 0.0 | 0.0 | 0.00 | 0.00 | 0.00 | 94 | 1017.4 |
| 20260506122819 | 52 | 29 | 0.0 | 0.0 | 0.00 | 0.00 | 0.00 | 94 | 1017.5 |
| 20260506122316 | 52 | 29 | 0.0 | 0.0 | 0.00 | 0.00 | 0.00 | 94 | 1017.4 |
| 20260506121814 | 52 | 21 | 0.0 | 0.0 | 0.00 | 0.00 | 0.00 | 94 | 1017.2 |
| 20260506121311 | 53 | 29 | 0.0 | 0.0 | 0.00 | 0.00 | 0.00 | 94 | 1017.2 |
| 20260506120808 | 53 | 29 | 0.0 | 0.0 | 0.00 | 0.00 | 0.00 | 94 | 1017.4 |
| 20260506120306 | 53 | 29 | 0.0 | 0.0 | 0.00 | 0.00 | 0.00 | 94 | 1017.2 |
| 20260506115803 | 53 | 29 | 1.0 | 1.0 | 0.00 | 0.00 | 0.00 | 94 | 1017.3 |
| 20260506115306 | 53 | 36 | 0.0 | 0.0 | 0.00 | 0.00 | 0.00 | 94 | 1017.2 |
| 20260506114759 | 53 | 351 | 0.0 | 0.0 | 0.00 | 0.00 | 0.00 | 94 | 1017.2 |
| 20260506114257 | 53 | 351 | 0.0 | 0.0 | 0.00 | 0.00 | 0.00 | 94 | 1017.1 |
| 20260506113755 | 53 | 351 | 0.0 | 0.0 | 0.00 | 0.00 | 0.00 | 94 | 1016.9 |
| 20260506113252 | 53 | 317 | 0.0 | 0.0 | 0.00 | 0.00 | 0.00 | 94 | 1017.0 |
| 20260506112748 | 53 | 338 | 1.0 | 1.0 | 0.00 | 0.00 | 0.00 | 94 | 1016.9 |
| 20260506112246 | 53 | 329 | 0.0 | 0.0 | 0.00 | 0.00 | 0.00 | 94 | 1016.9 |
| 20260506111743 | 53 | 329 | 0.0 | 0.0 | 0.00 | 0.00 | 0.00 | 94 | 1017.0 |
| 20260506111241 | 53 | 329 | 0.0 | 0.0 | 0.00 | 0.00 | 0.00 | 94 | 1017.0 |
| 20260506110738 | 53 | 329 | 0.0 | 0.0 | 0.00 | 0.00 | 0.00 | 94 | 1016.8 |
| 20260506110236 | 53 | 329 | 0.0 | 0.0 | 0.00 | 0.00 | 0.00 | 94 | 1016.6 |
| 20260506105732 | 53 | 328 | 0.0 | 0.0 | 0.00 | 0.00 | 0.00 | 94 | 1016.9 |
| 20260506105229 | 53 | 328 | 0.0 | 0.0 | 0.00 | 0.00 | 0.00 | 94 | 1016.7 |
| 20260506104727 | 53 | 326 | 0.0 | 0.0 | 0.00 | 0.00 | 0.00 | 94 | 1016.9 |
| 20260506104224 | 53 | 19 | 0.0 | 0.0 | 0.00 | 0.00 | 0.00 | 94 | 1016.8 |
| 20260506103721 | 53 | 38 | 0.0 | 0.0 | 0.00 | 0.00 | 0.00 | 94 | 1016.7 |
| 20260506103218 | 53 | 3 | 0.0 | 0.0 | 0.00 | 0.00 | 0.00 | 94 | 1016.7 |
| 20260506102716 | 53 | 22 | 0.0 | 0.0 | 0.00 | 0.00 | 0.00 | 95 | 1016.7 |
| 20260506102214 | 53 | 23 | 0.0 | 0.0 | 0.00 | 0.00 | 0.00 | 95 | 1016.6 |
| 20260506101710 | 53 | 23 | 0.0 | 0.0 | 0.00 | 0.00 | 0.00 | 95 | 1016.7 |
| 20260506101207 | 53 | 23 | 0.0 | 0.0 | 0.00 | 0.00 | 0.00 | 95 | 1016.5 |
| 20260506100705 | 53 | 23 | 0.0 | 0.0 | 0.00 | 0.00 | 0.00 | 95 | 1016.6 |
| 20260506100203 | 53 | 23 | 0.0 | 0.0 | 0.00 | 0.00 | 0.00 | 95 | 1016.4 |
| 20260506095701 | 52 | 23 | 0.0 | 0.0 | 0.00 | 0.00 | 0.00 | 96 | 1016.3 |
| 20260506095158 | 52 | 22 | 0.0 | 0.0 | 0.00 | 0.00 | 0.00 | 96 | 1016.3 |
| 20260506094655 | 52 | 23 | 0.0 | 0.0 | 0.00 | 0.00 | 0.00 | 97 | 1016.2 |
| 20260506094153 | 52 | 23 | 0.0 | 0.0 | 0.00 | 0.00 | 0.00 | 97 | 1016.3 |
| 20260506093651 | 52 | 23 | 0.0 | 0.0 | 0.00 | 0.00 | 0.00 | 97 | 1016.1 |
| 20260506093148 | 52 | 23 | 0.0 | 0.0 | 0.00 | 0.00 | 0.00 | 97 | 1016.1 |
| 20260506092646 | 52 | 23 | 0.0 | 0.0 | 0.00 | 0.00 | 0.00 | 97 | 1015.9 |
| 20260506092143 | 52 | 23 | 0.0 | 0.0 | 0.00 | 0.00 | 0.00 | 97 | 1016.2 |
| 20260506091641 | 52 | 23 | 0.0 | 0.0 | 0.00 | 0.00 | 0.00 | 97 | 1016.4 |
| 20260506091138 | 52 | 22 | 0.0 | 0.0 | 0.00 | 0.00 | 0.00 | 97 | 1016.2 |
| 20260506090636 | 51 | 23 | 0.0 | 0.0 | 0.00 | 0.00 | 0.00 | 98 | 1016.2 |
| 20260506090132 | 51 | 23 | 0.0 | 0.0 | 0.00 | 0.00 | 0.00 | 98 | 1016.2 |
| 20260506085629 | 51 | 23 | 0.0 | 0.0 | 0.00 | 0.00 | 0.00 | 98 | 1016.2 |
| 20260506085125 | 51 | 23 | 0.0 | 0.0 | 0.00 | 0.00 | 0.00 | 98 | 1016.3 |
| 20260506084622 | 51 | 23 | 0.0 | 0.0 | 0.00 | 0.00 | 0.00 | 98 | 1016.1 |
| 20260506084119 | 51 | 23 | 0.0 | 0.0 | 0.00 | 0.00 | 0.00 | 99 | 1016.0 |
| 20260506083616 | 51 | 23 | 0.0 | 0.0 | 0.00 | 0.00 | 0.00 | 99 | 1016.0 |
| 20260506083113 | 50 | 23 | 0.0 | 0.0 | 0.00 | 0.00 | 0.00 | 99 | 1016.0 |
| 20260506082610 | 50 | 22 | 0.0 | 0.0 | 0.00 | 0.00 | 0.00 | 99 | 1015.9 |
| 20260506082105 | 50 | 23 | 0.0 | 0.0 | 0.00 | 0.00 | 0.00 | 99 | 1015.8 |
| 20260506081604 | 50 | 23 | 0.0 | 0.0 | 0.00 | 0.00 | 0.00 | 99 | 1015.8 |
| 20260506081101 | 50 | 22 | 0.0 | 0.0 | 0.00 | 0.00 | 0.00 | 99 | 1015.6 |
| 20260506080559 | 50 | 23 | 0.0 | 0.0 | 0.00 | 0.00 | 0.00 | 99 | 1015.6 |
| 20260506073039 | 50 | 25 | 0.0 | 0.0 | 0.00 | 0.00 | 0.00 | 99 | 1015.4 |
| 20260506072536 | 50 | 25 | 0.0 | 0.0 | 0.00 | 0.00 | 0.00 | 99 | 1015.3 |
| 20260506072034 | 50 | 25 | 0.0 | 0.0 | 0.00 | 0.00 | 0.00 | 98 | 1015.5 |
| 20260506071531 | 50 | 26 | 0.0 | 0.0 | 0.00 | 0.00 | 0.00 | 98 | 1015.3 |
| 20260506071028 | 50 | 25 | 0.0 | 0.0 | 0.00 | 0.00 | 0.00 | 98 | 1015.4 |
| 20260506070526 | 50 | 25 | 0.0 | 0.0 | 0.00 | 0.00 | 0.00 | 98 | 1015.3 |
| 20260506062503 | 51 | 25 | 0.0 | 0.0 | 0.00 | 0.00 | 0.00 | 97 | 1015.1 |
| 20260506061959 | 51 | 26 | 0.0 | 0.0 | 0.00 | 0.00 | 0.00 | 97 | 1014.9 |
| 20260506061455 | 51 | 26 | 0.0 | 0.0 | 0.00 | 0.00 | 0.00 | 97 | 1014.9 |
| 20260506060953 | 52 | 26 | 0.0 | 0.0 | 0.00 | 0.00 | 0.00 | 97 | 1014.9 |
| 20260506060451 | 52 | 26 | 0.0 | 0.0 | 0.00 | 0.00 | 0.00 | 97 | 1014.9 |
| 20260506050920 | 53 | 26 | 0.0 | 0.0 | 0.00 | 0.00 | 0.00 | 94 | 1014.5 |
| 20260506050418 | 53 | 26 | 0.0 | 0.0 | 0.00 | 0.00 | 0.00 | 94 | 1014.4 |
| 20260506044908 | 54 | 26 | 0.0 | 0.0 | 0.00 | 0.00 | 0.00 | 93 | 1014.2 |
| 20260506044406 | 54 | 26 | 0.0 | 0.0 | 0.00 | 0.00 | 0.00 | 93 | 1014.5 |
| 20260506043903 | 54 | 26 | 0.0 | 0.0 | 0.00 | 0.00 | 0.00 | 93 | 1014.4 |
| 20260506043400 | 55 | 26 | 0.0 | 0.0 | 0.00 | 0.00 | 0.00 | 92 | 1014.2 |
| 20260506042858 | 55 | 26 | 0.0 | 0.0 | 0.00 | 0.00 | 0.00 | 91 | 1014.4 |
| 20260506042357 | 55 | 26 | 0.0 | 0.0 | 0.00 | 0.00 | 0.00 | 91 | 1014.3 |
| 20260506041855 | 55 | 26 | 0.0 | 0.0 | 0.00 | 0.00 | 0.00 | 91 | 1014.2 |
| 20260506041352 | 56 | 26 | 0.0 | 0.0 | 0.00 | 0.00 | 0.00 | 90 | 1014.1 |
| 20260506040849 | 56 | 26 | 0.0 | 0.0 | 0.00 | 0.00 | 0.00 | 89 | 1014.0 |
| 20260506040347 | 56 | 26 | 0.0 | 0.0 | 0.00 | 0.00 | 0.00 | 89 | 1014.2 |
| 20260506035843 | 56 | 26 | 0.0 | 0.0 | 0.00 | 0.00 | 0.00 | 89 | 1014.1 |
| 20260506035340 | 57 | 26 | 0.0 | 0.0 | 0.00 | 0.00 | 0.00 | 89 | 1014.0 |
| 20260506034837 | 57 | 13 | 0.0 | 0.0 | 0.00 | 0.00 | 0.00 | 88 | 1013.8 |
| 20260506034334 | 57 | 13 | 0.0 | 0.0 | 0.00 | 0.00 | 0.00 | 88 | 1013.8 |
| 20260506033831 | 57 | 13 | 0.0 | 0.0 | 0.00 | 0.00 | 0.00 | 87 | 1013.9 |
| 20260506033328 | 58 | 44 | 0.0 | 0.0 | 0.00 | 0.00 | 0.00 | 86 | 1013.9 |
| 20260506032825 | 58 | 44 | 0.0 | 0.0 | 0.00 | 0.00 | 0.00 | 86 | 1013.8 |
| 20260506032322 | 59 | 44 | 0.0 | 0.0 | 0.00 | 0.00 | 0.00 | 84 | 1013.5 |
| 20260506031819 | 59 | 44 | 0.0 | 0.0 | 0.00 | 0.00 | 0.00 | 83 | 1013.6 |
| 20260506031316 | 59 | 44 | 0.0 | 0.0 | 0.00 | 0.00 | 0.00 | 83 | 1013.4 |
| 20260506030814 | 60 | 44 | 0.0 | 0.0 | 0.00 | 0.00 | 0.00 | 81 | 1013.3 |
| 20260506030312 | 60 | 45 | 1.0 | 1.0 | 0.00 | 0.00 | 0.00 | 80 | 1013.5 |
| 20260506025808 | 60 | 43 | 0.0 | 0.0 | 0.00 | 0.00 | 0.00 | 80 | 1013.4 |
| 20260506025306 | 61 | 37 | 0.0 | 0.0 | 0.00 | 0.00 | 0.00 | 79 | 1013.5 |